Index of /slackware/slackware-14.2/source/kde/build/

File Name  ↓ File Size  ↓ Date  ↓ 
Parent directory/--
kde-workspace2 B2016-Jun-23 22:32
calligra2 B2016-Jun-23 06:28
ktouch2 B2016-Mar-24 17:37
lskat2 B2016-Mar-21 03:12
kdepimlibs2 B2016-Feb-25 18:58
kmix2 B2016-Jan-11 02:30
kde-runtime2 B2016-Jan-11 02:15
bluedevil2 B2015-Dec-23 00:18
kio-mtp2 B2015-Dec-02 22:07
kdeconnect-kde2 B2015-Nov-19 23:19
kig2 B2015-Nov-16 23:59
step2 B2015-Nov-12 19:24
libkdcraw2 B2015-Nov-10 20:05
partitionmanager2 B2015-Oct-26 18:28
qtruby2 B2015-Oct-24 19:46
smokeqt2 B2015-Oct-24 19:46
pykde42 B2015-Oct-24 19:46
korundum2 B2015-Oct-24 19:46
libktorrent2 B2015-Oct-24 00:15
amarok2 B2015-Oct-24 00:15
zeroconf-ioslave2 B2015-Oct-24 00:15
wicd-kde2 B2015-Oct-24 00:15
umbrello2 B2015-Oct-24 00:15
sweeper2 B2015-Oct-24 00:15
svgpart2 B2015-Oct-24 00:15
superkaramba2 B2015-Oct-24 00:15
smokekde2 B2015-Oct-24 00:15
smokegen2 B2015-Oct-24 00:15
skanlite2 B2015-Oct-24 00:15
rocs2 B2015-Oct-24 00:15
print-manager2 B2015-Oct-24 00:15
poxml2 B2015-Oct-24 00:15
polkit-kde-kcmodules-12 B2015-Oct-24 00:15
polkit-kde-agent-12 B2015-Oct-24 00:15
picmi2 B2015-Oct-24 00:15
perlqt2 B2015-Oct-24 00:15
perlkde2 B2015-Oct-24 00:15
parley2 B2015-Oct-24 00:15
palapeli2 B2015-Oct-24 00:15
pairs2 B2015-Oct-24 00:15
oxygen-icons2 B2015-Oct-24 00:15
oxygen-gtk22 B2015-Oct-24 00:15
okular2 B2015-Oct-24 00:15
okteta2 B2015-Oct-24 00:15
nepomuk-widgets2 B2015-Oct-24 00:15
nepomuk-core2 B2015-Oct-24 00:15
mplayerthumbs2 B2015-Oct-24 00:15
marble2 B2015-Oct-24 00:15
lokalize2 B2015-Oct-24 00:15
libnm-qt2 B2015-Oct-24 00:15
libmm-qt2 B2015-Oct-24 00:15
libkscreen2 B2015-Oct-24 00:15
libksane2 B2015-Oct-24 00:15
libkomparediff22 B2015-Oct-24 00:15
libkmahjongg2 B2015-Oct-24 00:15
libkipi2 B2015-Oct-24 00:15
libkexiv22 B2015-Oct-24 00:15
libkdegames2 B2015-Oct-24 00:15
libkdeedu2 B2015-Oct-24 00:15
libkcompactdisc2 B2015-Oct-24 00:15
libkcddb2 B2015-Oct-24 00:15
kwordquiz2 B2015-Oct-24 00:15
kwebkitpart2 B2015-Oct-24 00:15
kwalletmanager2 B2015-Oct-24 00:15
kuser2 B2015-Oct-24 00:15
kubrick2 B2015-Oct-24 00:15
ktux2 B2015-Oct-24 00:15
kturtle2 B2015-Oct-24 00:15
ktuberling2 B2015-Oct-24 00:15
ktorrent2 B2015-Oct-24 00:15
ktimer2 B2015-Oct-24 00:15
kteatime2 B2015-Oct-24 00:15
ksystemlog2 B2015-Oct-24 00:15
ksudoku2 B2015-Oct-24 00:15
kstars2 B2015-Oct-24 00:15
ksquares2 B2015-Oct-24 00:15
kspaceduel2 B2015-Oct-24 00:15
ksnapshot2 B2015-Oct-24 00:15
ksnakeduel2 B2015-Oct-24 00:15
ksirk2 B2015-Oct-24 00:15
kshisen2 B2015-Oct-24 00:15
kscreen2 B2015-Oct-24 00:15
ksaneplugin2 B2015-Oct-24 00:15
kruler2 B2015-Oct-24 00:15
kross-interpreters2 B2015-Oct-24 00:15
krfb2 B2015-Oct-24 00:15
kreversi2 B2015-Oct-24 00:15
kremotecontrol2 B2015-Oct-24 00:15
krdc2 B2015-Oct-24 00:15
kqtquickcharts2 B2015-Oct-24 00:15
kppp2 B2015-Oct-24 00:15
kplayer2 B2015-Oct-24 00:15
kpat2 B2015-Oct-24 00:15
kopete2 B2015-Oct-24 00:15
konsole2 B2015-Oct-24 00:15
konquest2 B2015-Oct-24 00:15
kompare2 B2015-Oct-24 00:15
kolourpaint2 B2015-Oct-24 00:15
kollision2 B2015-Oct-24 00:15
kolf2 B2015-Oct-24 00:15
knetwalk2 B2015-Oct-24 00:15
knavalbattle2 B2015-Oct-24 00:15
kmplot2 B2015-Oct-24 00:15
kmouth2 B2015-Oct-24 00:15
kmousetool2 B2015-Oct-24 00:15
kmines2 B2015-Oct-24 00:15
kmahjongg2 B2015-Oct-24 00:15
kmag2 B2015-Oct-24 00:15
klines2 B2015-Oct-24 00:15
klickety2 B2015-Oct-24 00:15
klettres2 B2015-Oct-24 00:15
kjumpingcube2 B2015-Oct-24 00:15
kiten2 B2015-Oct-24 00:15
kiriki2 B2015-Oct-24 00:15
killbots2 B2015-Oct-24 00:15
kigo2 B2015-Oct-24 00:15
khangman2 B2015-Oct-24 00:15
kgpg2 B2015-Oct-24 00:15
kgoldrunner2 B2015-Oct-24 00:15
kget2 B2015-Oct-24 00:15
kgeography2 B2015-Oct-24 00:15
kgamma2 B2015-Oct-24 00:15
kfourinline2 B2015-Oct-24 00:15
kfloppy2 B2015-Oct-24 00:15
kfilemetadata2 B2015-Oct-24 00:15
kdiamond2 B2015-Oct-24 00:15
kdf2 B2015-Oct-24 00:15
kdewebdev2 B2015-Oct-24 00:15
kdevelop-pg-qt2 B2015-Oct-24 00:15
kdesdk-thumbnailers2 B2015-Oct-24 00:15
kdesdk-strigi-analyzers2 B2015-Oct-24 00:15
kdesdk-kioslaves2 B2015-Oct-24 00:15
kdeplasma-addons2 B2015-Oct-24 00:15
kdenetwork-strigi-analyzers2 B2015-Oct-24 00:15
kdenetwork-filesharing2 B2015-Oct-24 00:15
kdegraphics-thumbnailers2 B2015-Oct-24 00:15
kdegraphics-strigi-analyzer2 B2015-Oct-24 00:15
kdegraphics-mobipocket2 B2015-Oct-24 00:15
kdeartwork2 B2015-Oct-24 00:15
kde-dev-utils2 B2015-Oct-24 00:15
kde-dev-scripts2 B2015-Oct-24 00:15
kde-baseapps2 B2015-Oct-24 00:15
kde-base-artwork2 B2015-Oct-24 00:15
kcron2 B2015-Oct-24 00:15
kcolorchooser2 B2015-Oct-24 00:15
kcharselect2 B2015-Oct-24 00:15
kcalc2 B2015-Oct-24 00:15
kcachegrind2 B2015-Oct-24 00:15
kbruch2 B2015-Oct-24 00:15
kbreakout2 B2015-Oct-24 00:15
kbounce2 B2015-Oct-24 00:15
kblocks2 B2015-Oct-24 00:15
kblackbox2 B2015-Oct-24 00:15
kaudiocreator2 B2015-Oct-24 00:15
katomic2 B2015-Oct-24 00:15
kate2 B2015-Oct-24 00:15
kapptemplate2 B2015-Oct-24 00:15
kapman2 B2015-Oct-24 00:15
kanagram2 B2015-Oct-24 00:15
kamera2 B2015-Oct-24 00:15
kalzium2 B2015-Oct-24 00:15
kalgebra2 B2015-Oct-24 00:15
kajongg2 B2015-Oct-24 00:15
kactivities2 B2015-Oct-24 00:15
kaccessible2 B2015-Oct-24 00:15
k3b2 B2015-Oct-24 00:15
juk2 B2015-Oct-24 00:15
gwenview2 B2015-Oct-24 00:15
granatier2 B2015-Oct-24 00:15
filelight2 B2015-Oct-24 00:15
dragon2 B2015-Oct-24 00:15
dolphin-plugins2 B2015-Oct-24 00:15
cervisia2 B2015-Oct-24 00:15
cantor2 B2015-Oct-24 00:15
bovo2 B2015-Oct-24 00:15
bomber2 B2015-Oct-24 00:15
blinken2 B2015-Oct-24 00:15
baloo-widgets2 B2015-Oct-24 00:15
baloo2 B2015-Oct-24 00:15
audiocd-kio2 B2015-Oct-24 00:15
artikulate2 B2015-Oct-24 00:15
ark2 B2015-Oct-24 00:15
analitza2 B2015-Oct-24 00:15
amor2 B2015-Oct-24 00:15
increment.sh507 B2013-Mar-07 23:41